Location: Palmerston North
(40.3500°S, 175.6170°E)
Time: 12:10:23
(UTC+13:00)

Mayak - Pass Details

Date: 24 January 2019
Orbit: 582 x 604 km, 97.6° (Epoch: 16 February)

Event Time Altitude Azimuth Distance (km) Brightness Sun altitude
Exits shadow 22:46:28 27° 100° (E) 1,166 0.0 -19.4°
Maximum altitude 22:46:54 27° 111° (ESE) 1,152 0.0 -19.4°
Drops below altitude 10° 22:50:28 10° 168° (SSE) 1,948 1.9 -19.9°
Sets 22:52:54 0° 180° (S) 2,862 3.1 -20.2°
